[[{"header":{"parameterUnit":"m.s-1","parameterCategory":2,"la1":30.2991,"la2":30.254,"lo1":-89.0895,"lo2":-89.0444,"dx":0.0017,"dy":0.0017,"nx":28,"ny":28,"refTime":"2023-02-06T09:00:00:Z","depth":"0","parameterNumber":2,"parameterNumberName":"U-component_of_CURRENTS"},"data":[0,0,0,0,0,0,0,0,0,0,0,0,0,0,0,0,0,0,0,0,0,0,0,0,0,0,0,0,0,0,0,0,0,0,0,0,0,0,0,0,0,0,0,0,0,0,0,0,0,0,0,0,0,0,0,0,0,0,0.2021,0.2021,0,0.1998,0.1997,0.1996,0.1983,0.1983,0.1984,0.1984,0.1934,0.1932,0.193,0,0,0,0,0,0,0,0,0,0,0,0,0,0.205,0.2049,0.2021,0.2021,0.2022,0.1998,0.1997,0.1996,0.1983,0.1983,0.1984,0.1985,0.1935,0.1933,0.193,0,0,0,0,0,0,0,0,0,0,0,0,0,0.2027,0.2049,0.2021,0.2017,0.2017,0.1998,0.1997,0.1996,0.1982,0.1983,0.1984,0.1985,0.1935,0.1933,0.193,0.1897,0,0,0.1922,0.192,0,0,0,0,0,0,0,0,0.2028,0.2025,0.2017,0.2017,0.2017,0.2,0.1989,0.1963,0.1982,0.1989,0.1984,0.1985,0.1957,0.1953,0.1938,0.1894,0.1892,0.1921,0.192,0.1918,0.1918,0,0,0,0,0,0,0,0.203,0.2026,0.2005,0.2018,0.2018,0.2015,0.2012,0.1984,0.1963,0.1988,0.1989,0.1996,0.1956,0.194,0.1936,0.1891,0.1921,0.1919,0.1917,0.1916,0.1895,0.1896,0,0,0,0,0,0,0.2045,0.2027,0.2006,0.2005,0.2032,0.2015,0.2011,0.1999,0.1964,0.1962,0.1995,0.1996,0.1945,0.194,0.1935,0.195,0.1918,0.1916,0.1914,0.1893,0.1895,0.1896,0,0,0,0,0,0,0.2045,0.2042,0.2007,0.2022,0.2019,0.2014,0.2,0.1998,0.1988,0.1971,0.1967,0.1989,0.1945,0.1938,0.1941,0.1946,0.1915,0.1912,0.1892,0.1894,0.1895,0.1945,0,0,0,0,0,0,0.2045,0.2042,0.2047,0.2023,0.2019,0.2001,0.2,0.1998,0.1995,0.1994,0.1964,0.196,0.1945,0.1945,0.1938,0.1942,0.191,0.1891,0.1893,0.1895,0.1942,0.1948,0.1953,0,0,0,0,0,0.2046,0.2042,0.2046,0.2045,0.2021,0.2002,0.1998,0.1994,0.1994,0.1987,0.1989,0.1961,0.1953,0.1944,0.1935,0.1938,0.189,0.1892,0.1895,0.1939,0.1947,0.1953,0,0,0,0,0,0,0.2055,0.204,0.2044,0.2036,0.2027,0.2002,0.2001,0.1994,0.1986,0.1989,0.1972,0.1968,0.1975,0.1951,0.1942,0.1941,0.1917,0.1918,0.1954,0.196,0.1966,0.1981,0.1908,0,0,0,0,0,0.2062,0.2045,0.2042,0.2029,0.2033,0.2017,0.2012,0.2004,0.1994,0.199,0.1977,0.1971,0.1974,0.1965,0.1958,0.1947,0.1972,0.1946,0.1951,0.1956,0.1965,0.2021,0.2033,0.1904,0.1904,0.1904,0,0,0.2061,0.2049,0.2041,0.2029,0.2021,0.2024,0.2013,0.2001,0.2004,0.1985,0.1988,0.1988,0.1979,0.1984,0.1982,0.1964,0.2011,0.1959,0.1963,0.1969,0.2025,0.2037,0.2049,0.1906,0.1905,0.1905,0,0,0.2043,0.2042,0.2031,0.203,0.2027,0.2022,0.2022,0.2007,0.2008,0.2006,0.2013,0.2028,0.2001,0.2016,0.2016,0.2045,0.2045,0.2032,0.2061,0.2116,0.2127,0.2137,0.2207,0.2223,0.2027,0.2027,0.2027,0,0.204,0.2029,0.2025,0.2024,0.203,0.2026,0.2027,0.2027,0.2014,0.2029,0.2014,0.2039,0.2021,0.2062,0.2072,0.2057,0.2095,0.2034,0.2124,0.2135,0.2144,0.2214,0.2231,0.203,0.2029,0.2029,0.2029,0,0.2032,0.2026,0.2019,0.2019,0.2026,0.2017,0.2034,0.2041,0.2041,0.2051,0.2087,0.2085,0.2109,0.2099,0.2087,0.2148,0.2157,0.2133,0.2109,0.2161,0.223,0.2247,0.2034,0.2033,0.2032,0.2031,0,0,0.1987,0.2009,0.1999,0.2008,0.2023,0.2019,0.2047,0.2072,0.2104,0.2106,0.2157,0.216,0.218,0.2184,0.2184,0.2212,0.2308,0.2197,0.2198,0.227,0.2453,0.2566,0.2595,0.2301,0.2304,0.2306,0.2483,0,0.1971,0.1969,0.1989,0.1991,0.1998,0.2026,0.2059,0.2089,0.2113,0.2166,0.2197,0.2238,0.2209,0.2229,0.2264,0.2305,0.2352,0.2264,0.2388,0.2393,0.2489,0.2617,0.277,0.2949,0.2499,0.2502,0.2504,0,0.1948,0.1951,0.1953,0.1989,0.1999,0.2013,0.2071,0.2103,0.2191,0.2217,0.2282,0.2314,0.2393,0.2342,0.2464,0.2414,0.2441,0.2457,0.2464,0.2563,0.2538,0.282,0.2997,0.3014,0.253,0.2528,0.2526,0,0.1901,0.1918,0.1917,0.1926,0.1977,0.1997,0.2039,0.2116,0.2174,0.2266,0.2324,0.2413,0.2482,0.2531,0.2593,0.2534,0.2728,0.2651,0.2783,0.279,0.2944,0.2962,0.3156,0.2733,0.2733,0.2732,0.2732,0,0.186,0.1861,0.1896,0.1893,0.1925,0.1978,0.2038,0.2091,0.2209,0.2301,0.2362,0.2463,0.2528,0.2647,0.2663,0.2827,0.2803,0.2838,0.2863,0.2968,0.2985,0.302,0.2955,0.2739,0.2737,0.2736,0.2735,0,0.1808,0.1824,0.1834,0.1879,0.1898,0.1928,0.2046,0.2106,0.2212,0.2341,0.2382,0.2545,0.2716,0.2803,0.2916,0.2952,0.3037,0.3097,0.3233,0.3271,0.3395,0.3326,0.3267,0.3147,0.3289,0.3293,0.3296,0,0.178,0.1772,0.1812,0.1828,0.1848,0.1911,0.1967,0.2087,0.2165,0.2394,0.2462,0.268,0.2851,0.3122,0.3256,0.3404,0.3207,0.3568,0.3471,0.3484,0.3423,0.3116,0.2992,0.3698,0.3705,0.371,0.3714,0,0.173,0.1744,0.1756,0.1792,0.1831,0.1899,0.199,0.2064,0.2228,0.2373,0.2604,0.2776,0.3114,0.3402,0.3618,0.3692,0.3502,0.368,0.3669,0.3768,0.3471,0.3343,0.3485,0.3762,0.3757,0.3754,0.3751,0.3749,0.1697,0.17,0.1715,0.1757,0.1803,0.1882,0.195,0.2084,0.2249,0.2492,0.2663,0.2971,0.3432,0.3812,0.3892,0.4174,0.3812,0.4152,0.4072,0.3759,0.3632,0.3891,0.4195,0.4192,0.4191,0.4189,0.4187,0,0.164,0.1661,0.1688,0.1733,0.1773,0.1828,0.1957,0.2047,0.224,0.2529,0.2766,0.334,0.378,0.4126,0.46,0.4609,0.4299,0.4508,0.4151,0.4003,0.4312,0.4327,0.4705,0.4705,0.4705,0.4705,0.4705,0.4705,0.1616,0.1609,0.1631,0.1676,0.1728,0.1798,0.1875,0.2041,0.2251,0.2656,0.3013,0.3285,0.3904,0.4596,0.4948,0.4888,0.4495,0.4404,0.4115,0.4468,0.4426,0.4386,0.4391,0.4775,0.4775,0.3742,0.3736,0.3731]},{"header":{"parameterUnit":"m.s-1","parameterCategory":2,"la1":30.2991,"la2":30.254,"lo1":-89.0895,"lo2":-89.0444,"dx":0.0017,"dy":0.0017,"nx":28,"ny":28,"refTime":"2023-02-06T09:00:00:Z","depth":"0","parameterNumber":3,"parameterNumberName":"V-component_of_CURRENTS"},"data":[0,0,0,0,0,0,0,0,0,0,0,0,0,0,0,0,0,0,0,0,0,0,0,0,0,0,0,0,0,0,0,0,0,0,0,0,0,0,0,0,0,0,0,0,0,0,0,0,0,0,0,0,0,0,0,0,0,0,-0.2266,-0.2267,0,-0.2352,-0.2353,-0.2354,-0.2412,-0.2413,-0.2414,-0.2415,-0.2541,-0.2543,-0.2546,0,0,0,0,0,0,0,0,0,0,0,0,0,-0.2184,-0.2185,-0.2266,-0.2267,-0.2269,-0.2352,-0.2353,-0.2354,-0.2412,-0.2413,-0.2414,-0.2415,-0.254,-0.2543,-0.2546,0,0,0,0,0,0,0,0,0,0,0,0,0,-0.2236,-0.2185,-0.2265,-0.2311,-0.2316,-0.2352,-0.2353,-0.2354,-0.2412,-0.2413,-0.2414,-0.2415,-0.2539,-0.2543,-0.2547,-0.2548,0,0,-0.2559,-0.2561,0,0,0,0,0,0,0,0,-0.2233,-0.2239,-0.2303,-0.2308,-0.2314,-0.2376,-0.2371,-0.2422,-0.2412,-0.2371,-0.2415,-0.2416,-0.2491,-0.2499,-0.2507,-0.2554,-0.2559,-0.2559,-0.2562,-0.2563,-0.2564,0,0,0,0,0,0,0,-0.223,-0.2236,-0.2296,-0.2304,-0.2311,-0.2338,-0.2346,-0.2381,-0.2421,-0.2375,-0.238,-0.2396,-0.2494,-0.2503,-0.251,-0.2561,-0.2559,-0.2563,-0.2565,-0.2567,-0.2565,-0.2562,0,0,0,0,0,0,-0.2224,-0.2232,-0.2293,-0.2299,-0.228,-0.2339,-0.2348,-0.2352,-0.242,-0.2433,-0.2395,-0.2398,-0.2495,-0.2506,-0.2515,-0.2441,-0.2563,-0.2567,-0.2569,-0.2567,-0.2564,-0.2562,0,0,0,0,0,0,-0.2221,-0.2228,-0.229,-0.2271,-0.2282,-0.2339,-0.2343,-0.2353,-0.2361,-0.2436,-0.2448,-0.2394,-0.2497,-0.251,-0.2498,-0.2449,-0.2569,-0.2572,-0.257,-0.2566,-0.2563,-0.2344,0,0,0,0,0,0,-0.2218,-0.2226,-0.2222,-0.227,-0.2283,-0.2287,-0.2343,-0.2354,-0.2371,-0.2376,-0.2439,-0.2452,-0.2499,-0.2491,-0.2502,-0.2457,-0.2575,-0.2573,-0.2568,-0.2564,-0.2354,-0.2333,-0.2315,0,0,0,0,0,-0.2215,-0.2193,-0.2221,-0.2229,-0.2276,-0.2286,-0.2292,-0.2337,-0.2369,-0.2352,-0.2376,-0.245,-0.2472,-0.2491,-0.2505,-0.246,-0.2575,-0.257,-0.2564,-0.2363,-0.2337,-0.2316,0,0,0,0,0,0,-0.2148,-0.2199,-0.223,-0.2224,-0.2247,-0.2297,-0.2288,-0.2326,-0.2334,-0.2335,-0.2409,-0.242,-0.2385,-0.2458,-0.2478,-0.2448,-0.2541,-0.2537,-0.2383,-0.236,-0.2341,-0.233,-0.2579,0,0,0,0,0,-0.2135,-0.2132,-0.2185,-0.2175,-0.2184,-0.2237,-0.2248,-0.2274,-0.2295,-0.2301,-0.2339,-0.2375,-0.2374,-0.2394,-0.2406,-0.2398,-0.2466,-0.2384,-0.2364,-0.2347,-0.2347,-0.2395,-0.2379,-0.2544,-0.2544,-0.2544,0,0,-0.212,-0.2134,-0.2143,-0.2161,-0.2184,-0.2153,-0.2243,-0.2241,-0.2213,-0.2313,-0.2272,-0.2296,-0.235,-0.2311,-0.2309,-0.237,-0.2327,-0.234,-0.2324,-0.2335,-0.2387,-0.2371,-0.2357,-0.254,-0.2541,-0.2541,0,0,-0.2031,-0.2084,-0.2035,-0.2043,-0.2059,-0.209,-0.2085,-0.2118,-0.2134,-0.2104,-0.2148,-0.2138,-0.217,-0.2179,-0.2194,-0.2086,-0.2204,-0.2105,-0.2018,-0.2061,-0.2048,-0.2038,-0.2064,-0.2058,-0.2117,-0.2116,-0.2116,0,-0.2,-0.1953,-0.202,-0.1957,-0.1965,-0.2049,-0.1995,-0.2007,-0.2027,-0.2035,-0.2064,-0.2064,-0.2101,-0.2058,-0.2009,-0.204,-0.209,-0.2094,-0.2034,-0.2026,-0.2019,-0.205,-0.2046,-0.2105,-0.2107,-0.2108,-0.2109,0,-0.1862,-0.1833,-0.1801,-0.176,-0.1771,-0.1743,-0.1785,-0.1781,-0.1821,-0.1846,-0.1819,-0.185,-0.1872,-0.1863,-0.19,-0.186,-0.1915,-0.1983,-0.2089,-0.1989,-0.2027,-0.2027,-0.2089,-0.2093,-0.2097,-0.2099,0,0,-0.1759,-0.1717,-0.1696,-0.1681,-0.1677,-0.168,-0.1632,-0.1638,-0.1621,-0.1635,-0.1609,-0.1591,-0.165,-0.167,-0.1717,-0.1744,-0.1708,-0.1837,-0.1844,-0.1854,-0.1795,-0.1788,-0.1788,-0.1773,-0.1773,-0.1773,-0.1827,0,-0.1627,-0.1508,-0.151,-0.1423,-0.1404,-0.1465,-0.1425,-0.1445,-0.1476,-0.1463,-0.1515,-0.1495,-0.1569,-0.1567,-0.1601,-0.169,-0.1705,-0.1687,-0.1901,-0.1907,-0.1906,-0.1787,-0.1684,-0.1721,-0.1828,-0.1828,-0.1828,0,-0.149,-0.1438,-0.1338,-0.1327,-0.1318,-0.127,-0.1287,-0.1256,-0.1269,-0.1288,-0.1301,-0.1354,-0.1372,-0.145,-0.1568,-0.1561,-0.1652,-0.1722,-0.1728,-0.1805,-0.1899,-0.1849,-0.1718,-0.1834,-0.1829,-0.1829,-0.1829,0,-0.1448,-0.1335,-0.1274,-0.126,-0.1231,-0.1205,-0.1195,-0.1208,-0.1176,-0.118,-0.1152,-0.1225,-0.1238,-0.1374,-0.153,-0.1557,-0.1663,-0.1737,-0.1804,-0.1805,-0.1803,-0.1805,-0.1807,-0.1796,-0.1796,-0.1796,-0.1795,0,-0.1358,-0.1297,-0.1249,-0.1216,-0.1133,-0.116,-0.1082,-0.1078,-0.1048,-0.0985,-0.1064,-0.1026,-0.1222,-0.1314,-0.1481,-0.1636,-0.1643,-0.1757,-0.1809,-0.1719,-0.1713,-0.1889,-0.2023,-0.1798,-0.1797,-0.1797,-0.1796,0,-0.132,-0.1288,-0.1199,-0.1136,-0.1114,-0.106,-0.0982,-0.0921,-0.0919,-0.0832,-0.0819,-0.0875,-0.0999,-0.1191,-0.1399,-0.155,-0.1793,-0.1764,-0.1631,-0.1665,-0.1842,-0.1968,-0.2097,-0.2227,-0.1847,-0.1847,-0.1847,0,-0.1285,-0.1244,-0.113,-0.106,-0.1013,-0.094,-0.0872,-0.0849,-0.0788,-0.0737,-0.0683,-0.075,-0.0781,-0.1073,-0.1341,-0.1603,-0.1775,-0.168,-0.1706,-0.1803,-0.1984,-0.2063,-0.2171,-0.1607,-0.1605,-0.1604,-0.1602,0,-0.1207,-0.1165,-0.1091,-0.0955,-0.0859,-0.0746,-0.0669,-0.0596,-0.0563,-0.0495,-0.0448,-0.0462,-0.0705,-0.0891,-0.1222,-0.143,-0.1772,-0.1655,-0.1791,-0.181,-0.1864,-0.2029,-0.1623,-0.1588,-0.1589,-0.159,-0.1591,-0.1592,-0.113,-0.1056,-0.0964,-0.0831,-0.0716,-0.0575,-0.0471,-0.0387,-0.0273,-0.0135,-0.0226,-0.0137,-0.04,-0.0832,-0.119,-0.1602,-0.1716,-0.1689,-0.1836,-0.1907,-0.2016,-0.1564,-0.1575,-0.1576,-0.1577,-0.1578,-0.1579,0,-0.1034,-0.0966,-0.0844,-0.069,-0.0545,-0.0507,-0.0342,-0.022,-0.0064,0.0095,0.0153,0.0224,-0.0151,-0.0587,-0.1129,-0.1593,-0.1863,-0.1869,-0.1945,-0.206,-0.1651,-0.162,-0.1596,-0.1596,-0.1595,-0.1595,-0.1595,-0.1595,-0.0978,-0.0861,-0.0807,-0.0578,-0.046,-0.0255,-0.0139,0.0051,0.0211,0.0526,0.0732,0.0834,0.0765,-0.0416,-0.1311,-0.1684,-0.2094,-0.2199,-0.2473,-0.2148,-0.2141,-0.2135,-0.2129,-0.2212,-0.2214,-0.2764,-0.277,-0.2774]}],[{"header":{"parameterUnit":"m.s-1","parameterCategory":2,"la1":30.2991,"la2":30.254,"lo1":-89.0895,"lo2":-89.0444,"dx":0.0017,"dy":0.0017,"nx":28,"ny":28,"refTime":"2023-02-06T09:00:00:Z","depth":"2","parameterNumber":2,"parameterNumberName":"U-component_of_CURRENTS"},"data":[0,0,0,0,0,0,0,0,0,0,0,0,0,0,0,0,0,0,0,0,0,0,0,0,0,0,0,0,0,0,0,0,0,0,0,0,0,0,0,0,0,0,0,0,0,0,0,0,0,0,0,0,0,0,0,0,0,0,0.1995,0.1996,0,0.2102,0.2102,0.2103,0.212,0.2119,0.2118,0.2118,0.2197,0.22,0.2202,0,0,0,0,0,0,0,0,0,0,0,0,0,0.1818,0.182,0.1995,0.1996,0.1998,0.2101,0.2102,0.2104,0.212,0.2119,0.2118,0.2117,0.2196,0.2199,0.2203,0,0,0,0,0,0,0,0,0,0,0,0,0,0.1903,0.1821,0.1994,0.2021,0.2025,0.2101,0.2103,0.2104,0.212,0.2119,0.2118,0.2117,0.2195,0.2199,0.2203,0.2247,0,0,0.2215,0.2217,0,0,0,0,0,0,0,0,0.1898,0.1909,0.2015,0.2019,0.2024,0.2099,0.2069,0.2152,0.212,0.208,0.2118,0.2116,0.2165,0.2171,0.2189,0.2251,0.2255,0.2216,0.2218,0.222,0.2221,0,0,0,0,0,0,0,0.1892,0.1905,0.2033,0.2017,0.2022,0.2032,0.2043,0.2085,0.2123,0.2083,0.2086,0.2103,0.2166,0.2185,0.2191,0.2256,0.2216,0.2219,0.2222,0.2223,0.2451,0.2454,0,0,0,0,0,0,0.1887,0.1899,0.203,0.2037,0.1961,0.2036,0.2048,0.2073,0.2124,0.2132,0.2104,0.2104,0.2178,0.2186,0.2194,0.2316,0.222,0.2224,0.2226,0.2447,0.2452,0.2456,0,0,0,0,0,0,0.1883,0.1898,0.2026,0.1972,0.199,0.2041,0.2069,0.2076,0.2113,0.214,0.2147,0.2136,0.2178,0.2188,0.2265,0.2317,0.2226,0.2229,0.2443,0.2449,0.2454,0.2518,0,0,0,0,0,0,0.1878,0.1896,0.1921,0.1973,0.1993,0.2084,0.207,0.2079,0.2126,0.2127,0.217,0.2175,0.2178,0.2259,0.2269,0.2321,0.2233,0.2439,0.2446,0.2452,0.2512,0.2525,0.2537,0,0,0,0,0,0.1871,0.1907,0.1921,0.1938,0.2023,0.2086,0.2097,0.2127,0.2129,0.2155,0.2195,0.2175,0.2309,0.2265,0.2276,0.233,0.2435,0.2444,0.2452,0.2506,0.2523,0.2537,0,0,0,0,0,0,0.1844,0.1914,0.193,0.1987,0.2039,0.209,0.2121,0.2144,0.2197,0.2203,0.2219,0.2229,0.232,0.2325,0.2276,0.2421,0.237,0.2381,0.2408,0.2424,0.2436,0.2438,0.2236,0,0,0,0,0,0.1851,0.1898,0.1959,0.2007,0.2032,0.2082,0.2115,0.214,0.2191,0.2213,0.2246,0.2295,0.2362,0.239,0.2442,0.2515,0.2543,0.2561,0.2574,0.2584,0.2597,0.2699,0.2721,0.2482,0.2482,0.2482,0,0,0.1853,0.1901,0.1927,0.2005,0.2043,0.2097,0.2098,0.2158,0.2213,0.2215,0.2298,0.2345,0.2396,0.2484,0.2525,0.2491,0.267,0.2594,0.2602,0.261,0.271,0.2733,0.2753,0.2488,0.2487,0.2486,0,0,0.1878,0.1924,0.1966,0.2016,0.2088,0.2123,0.2146,0.2214,0.2252,0.2341,0.2368,0.2449,0.2531,0.2584,0.2621,0.2739,0.2741,0.2758,0.2813,0.2912,0.2932,0.295,0.3017,0.304,0.2754,0.2755,0.2755,0,0.1879,0.1947,0.1988,0.2044,0.2093,0.2137,0.2195,0.2247,0.2335,0.2389,0.2376,0.2551,0.2583,0.2712,0.2753,0.2766,0.2813,0.2742,0.2926,0.2945,0.2962,0.3026,0.3051,0.2759,0.2758,0.2758,0.2757,0,0.1933,0.1994,0.2025,0.211,0.2162,0.2225,0.2296,0.236,0.241,0.2471,0.2609,0.2667,0.2769,0.2799,0.2811,0.2959,0.2951,0.2934,0.2877,0.2989,0.3051,0.3075,0.2765,0.2763,0.2762,0.2761,0,0,0.1928,0.204,0.2056,0.2103,0.2209,0.2255,0.2354,0.2465,0.2539,0.2631,0.2738,0.2865,0.29,0.2946,0.2978,0.3057,0.3213,0.3049,0.3052,0.3097,0.3427,0.3266,0.3276,0.323,0.3235,0.3239,0.342,0,0.1965,0.2066,0.2119,0.222,0.2279,0.2354,0.2435,0.254,0.2631,0.2741,0.2838,0.2947,0.2955,0.3006,0.3099,0.3193,0.3282,0.3165,0.3328,0.3333,0.3161,0.3301,0.2881,0.2994,0.3444,0.3448,0.3451,0,0.201,0.2074,0.2175,0.2282,0.2312,0.2371,0.2513,0.2595,0.2756,0.2827,0.2961,0.3035,0.3195,0.3157,0.3391,0.332,0.339,0.3442,0.345,0.3293,0.3217,0.2959,0.3021,0.3492,0.3489,0.3486,0.3483,0,0.2003,0.2117,0.2197,0.224,0.2363,0.2418,0.248,0.2629,0.2711,0.2887,0.2964,0.3155,0.325,0.3391,0.3508,0.3477,0.3727,0.3692,0.3615,0.3603,0.3272,0.3222,0.3857,0.3857,0.3857,0.3856,0.3855,0,0.2042,0.2107,0.2192,0.2246,0.2316,0.2405,0.2507,0.2598,0.2743,0.2852,0.3,0.3111,0.3318,0.3473,0.3565,0.3666,0.3787,0.3658,0.3655,0.3282,0.3233,0.3676,0.3652,0.3863,0.3861,0.386,0.3859,0,0.204,0.2111,0.2191,0.2296,0.2322,0.237,0.2484,0.2565,0.27,0.2845,0.2905,0.3133,0.3337,0.3503,0.3732,0.3718,0.3832,0.3827,0.3357,0.3294,0.3631,0.361,0.3789,0.3785,0.3782,0.3779,0.3777,0,0.2054,0.2099,0.2191,0.2223,0.227,0.2343,0.24,0.2529,0.2617,0.2848,0.2914,0.3151,0.3265,0.3512,0.3488,0.3588,0.3809,0.333,0.3187,0.3653,0.3634,0.3617,0.36,0.2787,0.2777,0.2768,0.2762,0,0.2058,0.2088,0.2142,0.2196,0.2249,0.23,0.2386,0.2429,0.26,0.2709,0.2863,0.296,0.3096,0.3,0.31,0.311,0.3273,0.3162,0.3813,0.2849,0.2717,0.2694,0.2709,0.2687,0.2695,0.27,0.2704,0.2707,0.2039,0.2055,0.2114,0.2155,0.2205,0.2231,0.2237,0.2322,0.2399,0.2473,0.2657,0.2633,0.262,0.2498,0.2541,0.258,0.2776,0.2726,0.2749,0.2781,0.2613,0.248,0.2375,0.238,0.2385,0.2389,0.2393,0,0.2002,0.2034,0.2068,0.2105,0.211,0.2171,0.2214,0.2174,0.2185,0.221,0.2254,0.1946,0.1856,0.1987,0.1831,0.1873,0.1829,0.1944,0.1851,0.1918,0.1979,0.1772,0.1311,0.131,0.1309,0.1308,0,0,0.199,0.2002,0.2009,0.1992,0.202,0.1997,0.1989,0.1914,0.187,0.1705,0.1595,0.1583,0.1692,0.1374,0.1393,0.1369,0.1648,0.132,0.214,0.2078,0.214,0.2337,0.208,0,0,0,0,0]},{"header":{"parameterUnit":"m.s-1","parameterCategory":2,"la1":30.2991,"la2":30.254,"lo1":-89.0895,"lo2":-89.0444,"dx":0.0017,"dy":0.0017,"nx":28,"ny":28,"refTime":"2023-02-06T09:00:00:Z","depth":"2","parameterNumber":3,"parameterNumberName":"V-component_of_CURRENTS"},"data":[0,0,0,0,0,0,0,0,0,0,0,0,0,0,0,0,0,0,0,0,0,0,0,0,0,0,0,0,0,0,0,0,0,0,0,0,0,0,0,0,0,0,0,0,0,0,0,0,0,0,0,0,0,0,0,0,0,0,0.0585,0.0585,0,0.0552,0.0552,0.0551,0.0514,0.0514,0.0513,0.0513,0.0416,0.0414,0.0412,0,0,0,0,0,0,0,0,0,0,0,0,0,0.057,0.0571,0.0585,0.0585,0.0584,0.0552,0.0552,0.0551,0.0514,0.0514,0.0513,0.0513,0.0417,0.0415,0.0412,0,0,0,0,0,0,0,0,0,0,0,0,0,0.056,0.0571,0.0585,0.0563,0.0561,0.0553,0.0552,0.0551,0.0514,0.0514,0.0513,0.0512,0.0418,0.0415,0.0412,0.0403,0,0,0.0402,0.04,0,0,0,0,0,0,0,0,0.056,0.056,0.0567,0.0565,0.0562,0.0538,0.0511,0.0499,0.0514,0.053,0.0513,0.0512,0.0453,0.0447,0.044,0.0399,0.0395,0.0401,0.0399,0.0398,0.0397,0,0,0,0,0,0,0,0.0561,0.0561,0.057,0.0567,0.0564,0.054,0.0538,0.0509,0.0493,0.0529,0.0526,0.0526,0.0451,0.0444,0.0438,0.0393,0.0401,0.0398,0.0396,0.0395,0.0372,0.0373,0,0,0,0,0,0,0.0572,0.0562,0.0571,0.0569,0.0562,0.0541,0.0539,0.0545,0.0494,0.0487,0.0526,0.0524,0.045,0.0442,0.0434,0.0459,0.0398,0.0395,0.0393,0.0371,0.0372,0.0374,0,0,0,0,0,0,0.0572,0.0573,0.0573,0.0566,0.0564,0.0543,0.055,0.0545,0.0553,0.0494,0.0484,0.0542,0.0449,0.0439,0.0434,0.0453,0.0393,0.039,0.0369,0.0371,0.0373,0.0485,0,0,0,0,0,0,0.0572,0.0574,0.0596,0.0567,0.0565,0.0593,0.055,0.0545,0.0554,0.0551,0.0503,0.0493,0.0448,0.0439,0.0431,0.0448,0.0388,0.0367,0.037,0.0372,0.0479,0.049,0.05,0,0,0,0,0,0.0571,0.0609,0.0597,0.0599,0.0592,0.0595,0.0593,0.0573,0.0556,0.0575,0.0542,0.0495,0.0449,0.0438,0.0428,0.0444,0.0366,0.0369,0.0372,0.0475,0.0488,0.0499,0,0,0,0,0,0,0.0631,0.0607,0.0594,0.0627,0.0621,0.059,0.061,0.059,0.058,0.0584,0.0516,0.0505,0.051,0.0465,0.0455,0.0446,0.0398,0.0399,0.0479,0.0491,0.0502,0.0532,0.0385,0,0,0,0,0,0.065,0.0666,0.0641,0.0674,0.0671,0.0643,0.0646,0.0637,0.0617,0.0613,0.0579,0.0541,0.0513,0.0494,0.0471,0.0464,0.0409,0.0466,0.0477,0.0486,0.0504,0.0438,0.0443,0.0384,0.0384,0.0384,0,0,0.0679,0.0675,0.0682,0.0687,0.0677,0.0696,0.0644,0.0667,0.0687,0.0604,0.0628,0.0586,0.0523,0.0523,0.0518,0.0486,0.0474,0.049,0.0498,0.0511,0.0441,0.0447,0.0452,0.0386,0.0385,0.0385,0,0,0.075,0.0745,0.0776,0.0778,0.0781,0.0761,0.0774,0.0758,0.0755,0.0769,0.0713,0.0684,0.0651,0.0601,0.0569,0.062,0.054,0.0615,0.0677,0.0613,0.0617,0.062,0.0558,0.0554,0.0607,0.0607,0.0608,0,0.0793,0.0822,0.0791,0.0826,0.0835,0.0795,0.0834,0.0829,0.082,0.0822,0.0798,0.0744,0.0684,0.0658,0.0672,0.0641,0.0599,0.0635,0.0626,0.0628,0.0629,0.0564,0.0559,0.0613,0.0612,0.0612,0.0611,0,0.0873,0.0904,0.0928,0.0947,0.0957,0.0989,0.0968,0.0985,0.097,0.0956,0.0952,0.0873,0.0831,0.0804,0.0751,0.0732,0.0699,0.0655,0.0595,0.0641,0.057,0.0563,0.0621,0.0619,0.0618,0.0616,0,0,0.095,0.0976,0.0987,0.1011,0.1022,0.1039,0.1074,0.1084,0.1114,0.1089,0.1108,0.1036,0.0991,0.0952,0.0873,0.0812,0.0766,0.0748,0.0742,0.0688,0.0633,0.0588,0.0575,0.0725,0.0724,0.0724,0.058,0,0.1022,0.1099,0.1092,0.1166,0.1195,0.1174,0.1208,0.1219,0.1214,0.1228,0.1143,0.1129,0.1046,0.1018,0.0952,0.0828,0.0753,0.0809,0.0595,0.0589,0.0544,0.0567,0.0472,0.0334,0.0572,0.057,0.0569,0,0.1095,0.1136,0.1215,0.1259,0.1271,0.1312,0.135,0.138,0.1382,0.1377,0.1347,0.1283,0.1201,0.1113,0.0926,0.0973,0.0817,0.0706,0.0697,0.0614,0.0531,0.0326,0.0311,0.0555,0.0557,0.0558,0.0558,0,0.1145,0.1217,0.1278,0.1298,0.1347,0.1383,0.1408,0.1431,0.1466,0.1467,0.1487,0.139,0.1336,0.1161,0.0944,0.093,0.0736,0.067,0.0477,0.0471,0.0328,0.0312,0.0515,0.0515,0.0515,0.0516,0.0516,0,0.1209,0.1265,0.131,0.1353,0.1432,0.1446,0.1531,0.1547,0.1583,0.1638,0.1563,0.1571,0.1347,0.1212,0.0996,0.0738,0.0763,0.0499,0.0435,0.0365,0.0355,0.0497,0.0497,0.051,0.0512,0.0513,0.0514,0,0.1254,0.1285,0.1364,0.1434,0.1459,0.1519,0.1602,0.1662,0.1692,0.1759,0.1757,0.1696,0.1526,0.1289,0.0998,0.0799,0.055,0.0435,0.0379,0.0312,0.0309,0.0317,0.0202,0.0199,0.0197,0.0195,0.0193,0,0.1282,0.1329,0.1422,0.1467,0.1504,0.1589,0.1649,0.1707,0.1773,0.1835,0.1869,0.175,0.1674,0.1271,0.0851,0.0461,0.0495,0.0166,0.0108,0.033,0.0279,0.029,0.03,-0.0051,-0.0055,-0.0058,-0.006,0,0.1333,0.1367,0.1421,0.1518,0.1592,0.1686,0.1777,0.1846,0.1922,0.199,0.2045,0.1995,0.1582,0.1135,0.0625,0.0375,0.023,0.0096,0.0324,0.0066,0.0086,0.0038,0.0057,-0.0085,-0.0083,-0.0081,-0.0079,-0.0078,0.1354,0.14,0.1467,0.1558,0.1648,0.1768,0.1857,0.1958,0.208,0.2142,0.2107,0.1915,0.1409,0.0615,0.0294,-0.0033,0.0002,-0.0146,-0.0136,-0.0123,-0.0103,-0.0086,-0.0286,-0.0285,-0.0284,-0.0283,-0.0282,0,0.136,0.1417,0.1501,0.1616,0.172,0.1774,0.1929,0.2011,0.2159,0.2071,0.2072,0.1391,0.0923,0.0466,-0.0106,-0.0394,-0.0398,-0.0422,-0.0397,-0.0374,-0.0352,-0.034,-0.0589,-0.0589,-0.059,-0.0591,0,0,0.1362,0.1431,0.1483,0.1646,0.1742,0.1897,0.1995,0.2106,0.2058,0.1913,0.1647,0.1339,0.076,0.0239,-0.0117,-0.0332,-0.0263,-0.0364,-0.0108,-0.0015,0.0011,-0.0204,-0.0162,0,0,0,0,0]}],[{"header":{"parameterUnit":"m.s-1","parameterCategory":2,"la1":30.2991,"la2":30.254,"lo1":-89.0895,"lo2":-89.0444,"dx":0.0017,"dy":0.0017,"nx":28,"ny":28,"refTime":"2023-02-06T09:00:00:Z","depth":"4","parameterNumber":2,"parameterNumberName":"U-component_of_CURRENTS"},"data":[0,0,0,0,0,0,0,0,0,0,0,0,0,0,0,0,0,0,0,0,0,0,0,0,0,0,0,0,0,0,0,0,0,0,0,0,0,0,0,0,0,0,0,0,0,0,0,0,0,0,0,0,0,0,0,0,0,0,0.0567,0.0568,0,0.0671,0.0673,0.0675,0.0779,0.078,0.0781,0.0782,0.0867,0.0868,0.0869,0,0,0,0,0,0,0,0,0,0,0,0,0,0.0492,0.0493,0.0567,0.0568,0.0569,0.0671,0.0673,0.0675,0.0779,0.078,0.0781,0.0782,0.0866,0.0868,0.087,0,0,0,0,0,0,0,0,0,0,0,0,0,0.0559,0.0493,0.0567,0.0628,0.0635,0.0671,0.0673,0.0676,0.0779,0.078,0.0782,0.0783,0.0866,0.0868,0.087,0.0858,0,0,0.0877,0.0878,0,0,0,0,0,0,0,0,0.0555,0.0562,0.0619,0.0624,0.0631,0.0708,0.0677,0.0734,0.0779,0.0731,0.0782,0.0783,0.0807,0.0814,0.084,0.0862,0.0866,0.0877,0.0878,0.0879,0.088,0,0,0,0,0,0,0,0.055,0.0558,0.0615,0.0619,0.0627,0.0662,0.0673,0.0689,0.0765,0.0735,0.0741,0.0743,0.0811,0.0838,0.0842,0.0867,0.0877,0.0879,0.088,0.0881,0.0955,0.0955,0,0,0,0,0,0,0.0522,0.0554,0.0611,0.0617,0.0588,0.0661,0.0674,0.0687,0.0765,0.0777,0.0741,0.0747,0.0833,0.084,0.0846,0.0937,0.0879,0.0881,0.0882,0.0954,0.0955,0.0955,0,0,0,0,0,0,0.052,0.0526,0.0607,0.0582,0.0594,0.0661,0.0675,0.0688,0.075,0.0769,0.0782,0.0791,0.0834,0.0843,0.0878,0.0937,0.0882,0.0884,0.0953,0.0954,0.0955,0.1055,0,0,0,0,0,0,0.0518,0.0525,0.0537,0.0581,0.0594,0.0649,0.0673,0.0689,0.0743,0.0753,0.0815,0.0823,0.0836,0.0874,0.088,0.0939,0.0886,0.0952,0.0954,0.0955,0.1051,0.1059,0.1066,0,0,0,0,0,0.0515,0.0528,0.0537,0.0544,0.0605,0.0649,0.0662,0.0716,0.0744,0.0776,0.0808,0.0823,0.0886,0.0876,0.0883,0.0945,0.0952,0.0953,0.0955,0.1047,0.1058,0.1066,0,0,0,0,0,0,0.051,0.054,0.0552,0.0576,0.0614,0.0665,0.07,0.0731,0.0786,0.08,0.0827,0.0836,0.0896,0.0887,0.0876,0.0963,0.0923,0.0926,0.0991,0.1001,0.1009,0.0993,0.0888,0,0,0,0,0,0.0506,0.0527,0.0558,0.0583,0.0604,0.0656,0.0685,0.0719,0.0761,0.0791,0.083,0.0863,0.0901,0.0924,0.0948,0.0987,0.0953,0.1028,0.1036,0.1043,0.1031,0.102,0.1026,0.096,0.096,0.096,0,0,0.0508,0.0529,0.0541,0.0583,0.0624,0.0672,0.0682,0.0734,0.0784,0.0785,0.0873,0.0895,0.0915,0.0973,0.0998,0.0978,0.1044,0.1045,0.1051,0.1035,0.1022,0.1029,0.1035,0.0961,0.0961,0.0961,0,0,0.0521,0.0548,0.0569,0.0608,0.0657,0.0695,0.0714,0.0776,0.082,0.0889,0.0903,0.094,0.1016,0.1027,0.1047,0.1098,0.1087,0.1128,0.1162,0.1153,0.1158,0.1163,0.1134,0.1135,0.1131,0.1131,0.1131,0,0.0522,0.0558,0.0584,0.0624,0.0659,0.0712,0.0754,0.081,0.0877,0.0897,0.0932,0.1024,0.1042,0.109,0.1119,0.1121,0.1107,0.1136,0.1165,0.1168,0.1171,0.114,0.1139,0.1136,0.1135,0.1135,0.1134,0,0.0549,0.0593,0.0619,0.0687,0.0727,0.0778,0.0838,0.0896,0.0962,0.0998,0.1073,0.1103,0.1153,0.1176,0.1178,0.1211,0.1192,0.1181,0.1146,0.1184,0.1148,0.1146,0.1143,0.1141,0.114,0.1139,0,0,0.0526,0.0615,0.0634,0.0671,0.0764,0.08,0.0887,0.0954,0.1009,0.109,0.1147,0.1222,0.1235,0.1251,0.1258,0.125,0.1266,0.1235,0.1233,0.1214,0.1242,0.1226,0.1221,0.1276,0.1277,0.1277,0.1212,0,0.0548,0.0616,0.0663,0.0756,0.0797,0.087,0.0948,0.1012,0.1082,0.115,0.1184,0.126,0.1269,0.1314,0.1308,0.128,0.1265,0.1284,0.1199,0.1196,0.1184,0.122,0.1277,0.121,0.1209,0.1209,0.1209,0,0.0568,0.061,0.0685,0.0781,0.0809,0.0896,0.1007,0.1077,0.1164,0.1215,0.1279,0.1309,0.134,0.1342,0.1316,0.1338,0.1296,0.1261,0.1258,0.1201,0.1176,0.116,0.1204,0.1205,0.1205,0.1205,0.1205,0,0.0527,0.0634,0.0692,0.0731,0.0847,0.0923,0.1014,0.1111,0.116,0.1271,0.1317,0.1354,0.14,0.1365,0.1322,0.1333,0.1257,0.1258,0.1191,0.1188,0.1177,0.1172,0.1213,0.1213,0.1213,0.1213,0.1213,0,0.0521,0.0579,0.0703,0.0739,0.0836,0.0933,0.1048,0.1133,0.1236,0.1263,0.1366,0.1374,0.1413,0.1378,0.1323,0.1255,0.1265,0.1194,0.1176,0.122,0.1221,0.1175,0.1172,0.1211,0.1211,0.1212,0.1212,0,0.0475,0.0549,0.0619,0.0758,0.0822,0.0904,0.1082,0.1142,0.1269,0.1309,0.1352,0.1405,0.1382,0.1373,0.1298,0.1265,0.1188,0.1146,0.1182,0.1167,0.1121,0.1124,0.1086,0.1085,0.1084,0.1084,0.1083,0,0.0456,0.0489,0.0623,0.0678,0.0769,0.0914,0.1002,0.1152,0.1181,0.1278,0.1253,0.1306,0.1318,0.1206,0.1207,0.1142,0.1121,0.11,0.113,0.1125,0.1111,0.1114,0.1118,0.1082,0.1082,0.1081,0.1081,0,0.0411,0.047,0.0524,0.0629,0.0741,0.0825,0.0955,0.0972,0.109,0.1195,0.1161,0.1184,0.1157,0.1137,0.1125,0.1055,0.1139,0.1091,0.1093,0.112,0.1119,0.1107,0.1111,0.1078,0.1079,0.1079,0.1079,0,0.0389,0.0405,0.0482,0.0578,0.0689,0.0732,0.0804,0.0858,0.0916,0.1023,0.0976,0.1033,0.1087,0.1084,0.1026,0.1028,0.1025,0.1014,0.1019,0.1023,0.1043,0.1035,0.095,0,0,0,0,0,0.0363,0.0375,0.0433,0.0508,0.0608,0.0668,0.0761,0.0813,0.0906,0.086,0.0935,0.0902,0.0931,0.0944,0.0933,0.0999,0.1017,0.0986,0.1004,0.1062,0.1066,0.1102,0,0,0,0,0,0,0.0338,0.0383,0.0397,0.045,0.0493,0.0569,0.0627,0.0671,0.0651,0.0752,0.075,0.0869,0.0874,0.0913,0.0913,0.0927,0.0931,0.1036,0.1035,0.106,0.1063,0.1066,0.1105,0,0,0,0,0]},{"header":{"parameterUnit":"m.s-1","parameterCategory":2,"la1":30.2991,"la2":30.254,"lo1":-89.0895,"lo2":-89.0444,"dx":0.0017,"dy":0.0017,"nx":28,"ny":28,"refTime":"2023-02-06T09:00:00:Z","depth":"4","parameterNumber":3,"parameterNumberName":"V-component_of_CURRENTS"},"data":[0,0,0,0,0,0,0,0,0,0,0,0,0,0,0,0,0,0,0,0,0,0,0,0,0,0,0,0,0,0,0,0,0,0,0,0,0,0,0,0,0,0,0,0,0,0,0,0,0,0,0,0,0,0,0,0,0,0,0.0171,0.017,0,0.0094,0.0093,0.0092,0.0062,0.0062,0.0063,0.0063,-0.0027,-0.003,-0.0033,0,0,0,0,0,0,0,0,0,0,0,0,0,0.0205,0.0204,0.0171,0.017,0.0169,0.0095,0.0093,0.0092,0.0062,0.0062,0.0063,0.0063,-0.0027,-0.003,-0.0033,0,0,0,0,0,0,0,0,0,0,0,0,0,0.0163,0.0204,0.0171,0.0147,0.0144,0.0095,0.0093,0.0092,0.0062,0.0062,0.0063,0.0064,-0.0025,-0.003,-0.0034,-0.0072,0,0,-0.0046,-0.0048,0,0,0,0,0,0,0,0,0.0166,0.0162,0.0151,0.0149,0.0146,0.009,0.0072,0.0037,0.0062,0.009,0.0063,0.0064,0.0012,0.0005,-0.0014,-0.0076,-0.008,-0.0047,-0.0049,-0.0051,-0.0052,0,0,0,0,0,0,0,0.0169,0.0164,0.0138,0.0151,0.0147,0.0111,0.0106,0.0065,0.0046,0.0088,0.0086,0.0081,0.001,-0.001,-0.0017,-0.0082,-0.0047,-0.005,-0.0053,-0.0055,-0.0205,-0.0207,0,0,0,0,0,0,0.0187,0.0167,0.0141,0.0136,0.016,0.011,0.0105,0.0105,0.0047,0.004,0.0081,0.008,-0.0004,-0.0012,-0.002,-0.0096,-0.0051,-0.0055,-0.0058,-0.0204,-0.0205,-0.0207,0,0,0,0,0,0,0.0188,0.0185,0.0144,0.0151,0.0144,0.011,0.011,0.0104,0.0079,0.0042,0.0034,0.0063,-0.0003,-0.0014,-0.006,-0.0098,-0.0057,-0.0061,-0.0202,-0.0204,-0.0206,-0.023,0,0,0,0,0,0,0.0189,0.0186,0.0188,0.0153,0.0144,0.0116,0.011,0.0102,0.0077,0.0075,0.0024,0.0017,-0.0004,-0.0054,-0.0065,-0.0103,-0.0064,-0.02,-0.0203,-0.0206,-0.0228,-0.0233,-0.0238,0,0,0,0,0,0.0191,0.0198,0.0189,0.0185,0.015,0.0116,0.0108,0.0083,0.0075,0.0063,0.0028,0.0018,-0.0079,-0.0059,-0.0071,-0.0112,-0.0199,-0.0202,-0.0205,-0.0226,-0.0232,-0.0238,0,0,0,0,0,0,0.021,0.0194,0.0184,0.0185,0.0153,0.0112,0.0102,0.0078,0.0039,0.0037,0.0001,-0.0009,-0.007,-0.0084,-0.006,-0.0163,-0.0143,-0.0148,-0.0154,-0.016,-0.0165,-0.0163,-0.0068,0,0,0,0,0,0.0216,0.022,0.0188,0.0186,0.0174,0.0133,0.0115,0.0094,0.0058,0.0041,0.0004,-0.004,-0.0094,-0.0118,-0.0162,-0.0214,-0.0212,-0.0249,-0.0254,-0.0258,-0.0265,-0.0295,-0.0303,-0.0218,-0.0218,-0.0218,0,0,0.0225,0.0214,0.0217,0.019,0.0165,0.0139,0.0123,0.0096,0.0065,0.0036,-0.0015,-0.0061,-0.0113,-0.0174,-0.0202,-0.0189,-0.0278,-0.0262,-0.0265,-0.0271,-0.0299,-0.0307,-0.0315,-0.022,-0.022,-0.0219,0,0,0.0233,0.0232,0.023,0.0206,0.017,0.0143,0.0134,0.0086,0.0059,0.0001,-0.0033,-0.0095,-0.0168,-0.0215,-0.0249,-0.0308,-0.0306,-0.0327,-0.0351,-0.038,-0.0387,-0.0393,-0.038,-0.0385,-0.0326,-0.0327,-0.0327,0,0.0237,0.0233,0.0221,0.0203,0.0183,0.0145,0.0122,0.0085,0.0024,-0.0005,-0.0014,-0.0152,-0.0192,-0.0281,-0.0308,-0.0321,-0.0321,-0.0322,-0.0385,-0.0392,-0.0398,-0.0383,-0.0388,-0.0328,-0.0328,-0.0328,-0.0328,0,0.0234,0.0227,0.0224,0.0192,0.0167,0.0143,0.0097,0.0061,0.0019,-0.0025,-0.012,-0.0189,-0.0266,-0.0302,-0.0329,-0.0406,-0.0385,-0.0389,-0.0365,-0.0407,-0.0389,-0.0394,-0.033,-0.033,-0.0329,-0.0329,0,0,0.0245,0.0226,0.0223,0.0208,0.0159,0.0138,0.009,0.0031,-0.0005,-0.0085,-0.0144,-0.0265,-0.0304,-0.0346,-0.0396,-0.0437,-0.0477,-0.0435,-0.0435,-0.0412,-0.0512,-0.0488,-0.049,-0.0492,-0.0494,-0.0495,-0.0474,0,0.0237,0.0221,0.0205,0.0173,0.0156,0.0114,0.0074,0.0017,-0.004,-0.0102,-0.0194,-0.0268,-0.032,-0.0364,-0.042,-0.0471,-0.0495,-0.048,-0.0484,-0.0483,-0.045,-0.0498,-0.05,-0.0477,-0.0478,-0.0479,-0.048,0,0.0228,0.022,0.0203,0.0166,0.0154,0.0129,0.0064,0.0018,-0.0067,-0.0113,-0.0207,-0.0265,-0.0366,-0.0387,-0.0492,-0.048,-0.0499,-0.0528,-0.0527,-0.0503,-0.047,-0.0434,-0.0488,-0.0487,-0.0487,-0.0486,-0.0485,0,0.0239,0.0212,0.0204,0.0192,0.0147,0.0126,0.009,0.0015,-0.0016,-0.0118,-0.0146,-0.0273,-0.0327,-0.0401,-0.0475,-0.0481,-0.0557,-0.0561,-0.0549,-0.0545,-0.0558,-0.0552,-0.0611,-0.0611,-0.0611,-0.0611,-0.0611,0,0.023,0.022,0.0215,0.0208,0.0191,0.0145,0.0114,0.0054,-0.0008,-0.004,-0.0149,-0.0199,-0.0335,-0.0397,-0.0461,-0.0523,-0.054,-0.0563,-0.0554,-0.0565,-0.056,-0.0559,-0.0553,-0.061,-0.061,-0.061,-0.0611,0,0.0232,0.0233,0.0222,0.02,0.0199,0.0179,0.0154,0.0129,0.0061,0.0019,-0.0007,-0.0135,-0.0231,-0.0335,-0.0441,-0.0487,-0.0552,-0.0555,-0.0534,-0.0521,-0.0516,-0.0512,-0.0546,-0.0545,-0.0545,-0.0544,-0.0544,0,0.0226,0.023,0.0235,0.024,0.0232,0.022,0.0216,0.0164,0.0145,0.006,0.0042,-0.0059,-0.0145,-0.0269,-0.0395,-0.0499,-0.0514,-0.0526,-0.0565,-0.053,-0.0517,-0.0513,-0.051,-0.0543,-0.0543,-0.0543,-0.0543,0,0.0211,0.0226,0.0224,0.0253,0.0262,0.0266,0.0256,0.026,0.0201,0.0169,0.0094,-0.0004,-0.0105,-0.0249,-0.0326,-0.0407,-0.0524,-0.0521,-0.0523,-0.0559,-0.0526,-0.0513,-0.0511,-0.0541,-0.0541,-0.0541,-0.0541,0,0.0203,0.0203,0.0225,0.0243,0.0274,0.0284,0.0282,0.0269,0.0254,0.0181,0.0165,0.0027,-0.0054,-0.0198,-0.0278,-0.0358,-0.0384,-0.0403,-0.0412,-0.0415,-0.0403,-0.0344,-0.0302,0,0,0,0,0,0.0187,0.0191,0.0209,0.0226,0.0269,0.0282,0.0296,0.0291,0.0278,0.0246,0.0207,0.0114,-0.0043,-0.0136,-0.0208,-0.0282,-0.0408,-0.037,-0.0435,-0.053,-0.0532,-0.0541,0,0,0,0,0,0,0.0168,0.0188,0.0198,0.0228,0.0246,0.0275,0.0289,0.0273,0.0256,0.0233,0.015,0.0112,-0.0046,0.0006,-0.0206,-0.0237,-0.0284,-0.0446,-0.0447,-0.0529,-0.0531,-0.0532,-0.0543,0,0,0,0,0]}]]